Voltar ao catálogo

STARLINK-34771

AtivoComunicaçõesVLEO
NORAD 65078·PAYLOAD·🇺🇸 United States

Lançado Aug 4, 2025 de Cape Canaveral Space Force Station

Loading…

Próximas Passagens (próximas 24 horas)

TLE

AtualizadoSource: CelesTrak SupGP

Época: Sep 15, 2026, 03:57 UTC

1 65078C 25167A   26258.16506944 -.00047097  00000+0 -13917-2 0  2584
2 65078  53.1577 222.6307 0001423  86.2628 341.7045 15.34410141    19

Acompanhe STARLINK-34771 em tempo real com AllMySat

Download on the App Store